Preview of NWS' New Version of Forecast
This preview is not operational and should not be used for support decisions.
Latest weather observations around

Hickory, Hickory Regional Airport (KHKY)

Using English Units (Switch to International System of Units)
Date/ Time (EDT) Wind (mph) Vis. (mi) Weather Sky Cond. Temp (°F) Rel. Humidity Wind Chill (°F) Heat Index (°F) Pressure Precip. (in)
Air Dwpt 6 hour Altimeter (inHg) Sea level (inHg) 1 hr 3 hr 6 hr
Max Min
Aug 19 07:53 Calm 10 Mostly Clear FEW095 72 69     91%   73 30.09 30.02      
Aug 19 06:53 Calm 10 Mostly Cloudy BKN120 71 69     93%   72 30.08 30.01      
Aug 19 05:53 Calm 10 Clear CLR 70 68     93%     30.06 29.99      
Aug 19 04:53 Calm 10 Clear CLR 71 68     90%   72 30.06 29.98      
Aug 19 03:53 Calm 10 Clear CLR 71 69     93%   72 30.04 29.97      
Aug 19 02:53 Calm 10 Clear CLR 71 68     90%   72 30.05 29.98      
Aug 19 01:53 NE 3 10 Clear CLR 71 68     90%   72 30.06 29.98      
Aug 19 00:53 Calm 10 Clear CLR 73 69     87%   74 30.05 29.98      
Aug 18 23:53 Calm 10 Clear CLR 74 69     85%   75 30.05 29.98      
Aug 18 22:53 Calm 10 Clear CLR 75 68     79%   76 30.05 29.98      
Aug 18 21:53 Calm 10 Clear CLR 78 68     71%   79 30.04 29.97      
Aug 18 20:53 SW 3 10 Clear CLR 79 68     69%   80 30.03 29.96      
Aug 18 19:53 SW 9 10 Clear CLR 82 70     67%   86 30.02 29.96      
Aug 18 18:53 3 10 Clear CLR 87 69     55%   91 30.01 29.94      
Aug 18 17:53 Calm 10 Clear CLR 89 67     48%   92 30.01 29.94      
Aug 18 16:53 NNE 6 10 Clear CLR 90 67     47%   93 30.02 29.95      
Aug 18 16:18 NE 10 10 Mostly Clear FEW065 86 67     53%   89 30.03        
Aug 18 16:03 ENE 6 10 Clear CLR 88 67     50%   91 30.04        
Aug 18 15:53 ENE 9 10 Clear CLR 90 67     47%   93 30.03 29.96      
Aug 18 15:17 SSW 9 10 Thunderstorms CLR 88 65     47%   90 30.04        
Aug 18 15:08 SSW 11 10 Clear CLR 87 69     55%   91 30.05        
Aug 18 14:53 6 10 Clear CLR 88 70     55%   93 30.04 29.97      
Aug 18 13:53 3 10 Partly Cloudy FEW050 SCT080 89 68     50%   93 30.06 29.98      
Aug 18 12:53 Calm 10 Mostly Clear FEW048 89 70     53%   94 30.08 30      
Aug 18 11:53 Calm 10 Clear CLR 86 70     59%   91 30.09 30.01      
Aug 18 10:53 Calm 10 Clear CLR 82 71     69%   86 30.08 30.01      
Aug 18 09:53 WSW 3 10 Clear CLR 78 71     79%   79 30.06 30      
Aug 18 08:53 3 10 Clear CLR 74 70     87%   75 30.06 30      
Aug 18 07:53 WNW 5 10 Clear CLR 71 69     93%   72 30.05 29.98      
Aug 18 06:53 NW 3 9 Clear CLR 69 67     93%     30.04 29.97      
Aug 18 05:53 Calm 8 Clear CLR 69 68     96%     30.03 29.96      
Aug 18 05:25 WNW 5 8 Partly Cloudy SCT001 69 68     96%     30.02        
Aug 18 05:04 Calm 3 Fog/Mist BKN001 69 69     100%     30.03        
Aug 18 04:53 NW 5 1.25 Fog/Mist BKN001 70 69     97%     30.03        
Aug 18 04:50 WNW 5 2.5 Fog/Mist SCT001 70 69     97%     30.03 29.96      
Aug 18 04:49 WNW 3 2.5 Fog/Mist SCT001 70 70     100%     30.03        
Aug 18 03:53 Calm 10 Clear CLR 70 68     93%     30.03 29.97      
Aug 18 02:53 W 3 10 Clear CLR 71 69     93%   72 30.04 29.97      
Aug 18 01:53 Calm 10 Clear CLR 72 69     91%   73 30.05 29.98      
Aug 18 01:13 W 3 10 Partly Cloudy SCT016 72 69     91%   73 30.06        
Aug 18 00:53 Calm 10 Cloudy OVC017 72 68     87%   73 30.06 29.98      
Aug 18 00:16 Calm 10 Mostly Cloudy BKN018 73 69     87%   74 30.06        
Aug 17 23:53 N 3 10 Partly Cloudy SCT022 73 69     87%   74 30.06 29.99      
Aug 17 22:53 Calm 10 Clear CLR 73 70     90%   74 30.07 30      
Aug 17 21:53 Calm 10 Clear CLR 74 70     87%   75 30.05 29.98      
Aug 17 20:53 ENE 6 10 Clear CLR 76 70     82%   77 30.03 29.96      
Aug 17 19:53 ENE 7 10 Clear CLR 79 68     69%   80 30.02 29.95      
Aug 17 18:53 ENE 6 10 Clear CLR 83 68     61%   86 30.01 29.94      
Aug 17 17:53 NNE 7 10 Partly Cloudy SCT120 82 71     69%   86 30.02 29.95      
Aug 17 16:53 N 5 10 Mostly Clear FEW095 80 70     71%   83 30.01 29.93      
Aug 17 15:53 NNE 7 10 Mostly Cloudy BKN095 82 67     60%   85 30.02 29.95      
Aug 17 15:06 NNE 10 10 Mostly Cloudy BKN042 BKN055 82 67     60%   85 30.03        
Aug 17 14:53 N 9 10 Mostly Cloudy SCT038 BKN060 83 65     55%   85 30.03 29.96      
Aug 17 14:31 6 10 Mostly Clear FEW034 88 71     57%   94 30.02        
Aug 17 13:53 S 5 10 Mostly Clear FEW055 FEW100 85 71     63%   90 30.03 29.96      
Aug 17 13:37 Calm 10 Mostly Cloudy FEW046 SCT055 BKN095 85 70     61%   89 30.03        
Aug 17 13:22 Calm 10 Partly Cloudy SCT042 SCT050 SCT085 85 70     61%   89 30.04        
Aug 17 12:53 E 3 10 Mostly Cloudy SCT030 BKN035 87 73     63%   95 30.05 29.97      
Aug 17 11:53 3 10 Mostly Clear FEW026 86 74     67%   94 30.06 29.98      
Aug 17 10:53 Calm 10 Clear CLR 83 72     70%   88 30.06 29.99      
Aug 17 09:53 Calm 10 Clear CLR 80 72     76%   84 30.04 29.96      
Aug 17 08:53 Calm 10 Clear CLR 75 71     88%   76 30.03 29.95      
Aug 17 08:32 Calm 10 Partly Cloudy SCT004 74 70     87%   75 30.02        
Aug 17 07:53 Calm 10 Cloudy OVC004 71 68     90%   72 30.03 29.96      
Aug 17 07:10 Calm 10 Mostly Cloudy BKN003 69 67     93%     30.03        
Aug 17 07:04 Calm 8 Partly Cloudy SCT005 69 67     93%     30.03        
Aug 17 06:53 Calm 9 Clear CLR 68 67     96%     30.03 29.96      
Aug 17 05:53 NW 7 10 Clear CLR 69 67     93%     30.01 29.93      
Aug 17 04:53 WNW 5 10 Clear CLR 71 69     93%   72 30.01 29.94      
Aug 17 03:53 Calm 10 Clear CLR 71 68     90%   72 30.01 29.94      
Aug 17 02:53 Calm 10 Partly Cloudy SCT036 SCT045 72 69     91%   73 30.02 29.95      
Aug 17 01:53 Calm 10 Clear CLR 73 70     90%   74 30.02 29.94      
Aug 17 00:53 Calm 10 Clear CLR 75 72     90%   76 30.02 29.95      
Aug 16 23:53 ENE 7 10 Clear CLR 76 72     88%   77 30.02 29.94      
Aug 16 22:53 Calm 10 Partly Cloudy SCT060 78 71     79%   79 30.02 29.94      
Aug 16 21:53 Calm 10 Clear CLR 80 70     71%   83 30 29.92      
Aug 16 20:53 Calm 10 Clear CLR 83 69     63%   87 29.97 29.9      
Aug 16 19:53 Calm 10 Mostly Cloudy BKN060 87 67     51%   90 29.97 29.9      
Aug 16 18:53 Calm 10 Clear CLR 88 68     52%   92 29.97 29.89      
Aug 16 17:53 N 5 10 Clear   91 63     39%   92 29.96 29.88      
Aug 16 16:53 3 10 Mostly Clear FEW060 90 64     42%   91 29.96 29.89      
Aug 16 15:53 N 5 10 Clear CLR 89 65     45%   91 29.98 29.9      
Aug 16 14:53 6 10 Clear CLR 89 69     52%   94 30 29.93      
Aug 16 13:53 3 10 Partly Cloudy FEW039 SCT070 86 70     59%   91 30.01 29.93      
Aug 16 12:53 Calm 10 Clear CLR 85 69     59%   89 30.01 29.94      
Aug 16 11:53 Calm 10 Clear CLR 84 70     63%   88 30.03 29.95      
Aug 16 10:53 Calm 10 Clear CLR 82 70     67%   86 30.03 29.95      
Aug 16 09:53 NE 3 10 Clear CLR 79 69     72%   80 30.02 29.95      
Aug 16 08:53 N 3 10 Clear CLR 73 69     87%   74 30.02 29.95      
Aug 16 07:53 WNW 3 10 Clear CLR 71 67     87%   72 30 29.93      
Aug 16 06:53 Calm 10 Clear CLR 69 67     93%     29.99 29.92      
Aug 16 05:53 WNW 3 8 Clear CLR 70 68     93%     29.99 29.91      
Aug 16 04:53 Calm 10 Clear CLR 71 69     93%   72 29.97 29.9      
Aug 16 03:53 Calm 10 Mostly Clear FEW065 72 69     91%   73 29.98 29.9      
Aug 16 02:53 Calm 10 Clear CLR 72 69     91%   73 29.98 29.91      
Aug 16 01:53 Calm 10 Clear CLR 75 70     84%   76 29.98 29.91      
May 15 09:53 6 10 Clear CLR 74 66     76%   75 30.06 30      
May 13 15:53 S 7 10 Clear CLR 87 57     36%   86 30.03 29.96      
May 13 07:53 Calm 10 Clear CLR 67 63     87%     30.11 30.05      
May 12 23:53 Calm 10 Clear CLR 72 65     79%   73 30.09 30.02      
May 11 22:53 ENE 5 10 Clear CLR 69 65     87%     30.11 30.05      
Jun 11 22:53 S 6 10 Clear CLR 73 61     66%   73 30.21 30.14   0  
Jun 11 17:53 S 9 10 Clear   83 61     48%   83 30.19 30.13      
Jun 11 03:53 3 10 Clear CLR 66 62     87%     30.16 30.1      
Jun 11 02:53 Calm 10 Clear   67 62     84%     30.17 30.11      
Jun 10 20:53 S 5 10 Clear CLR 76 61     60%   76 30.11 30.04      
Jun 10 18:53 SSW 7 10 Clear CLR 82 60     47%   82 30.09 30.02      
Jun 10 16:53 SW 9 10 Mostly Clear FEW060 83 60     46%   83 30.09 30.03      
Jun 10 09:53 WNW 3 10 Clear CLR 73 61     66%   73 30.13 30.07      
Jun 10 04:53 Calm 10 Clear CLR 63 60     90%     30.04 29.98      
Jun 09 04:53 W 6 0.75 Fog/Mist VV002 58 58     100%     29.91 29.86      
Jun 09 04:23 W 3 1.5 Clear   59 59     100%     29.91        
Jun 07 21:53 NNE 3 10 Cloudy OVC080 66 57     73%     29.93 29.87      
Jun 07 19:53 E 7 10 Partly Cloudy FEW075 SCT100 70 54     57%     29.9 29.85      
Jun 07 10:53 ENE 5 10 Partly Cloudy SCT047 71 50     47%   70 29.9 29.84      
Jun 06 08:53 Calm 10 Clear CLR 70 66     87%     29.82 29.76      
Jun 06 04:53 Calm 10 Clear CLR 65 65     100%     29.77 29.71   0  
Jun 05 14:53 6 10 Partly Cloudy FEW043 SCT085 80 69     69%   83 29.75 29.68